Date,TemperatureHighF,TemperatureAvgF,TemperatureLowF,DewpointHighF,DewpointAvgF,DewpointLowF,HumidityHigh,HumidityAvg,HumidityLow,PressureMaxIn,PressureMinIn,WindSpeedMaxMPH,WindSpeedAvgMPH,GustSpeedMaxMPH,PrecipitationSumIn
2014-1-1,40.7,30.8,23.1,23.0,18.7,13.8,69,61,47,30.40,30.09,17,8,31,0.00
2014-1-2,38.8,31.4,22.9,28.7,21.8,16.6,99,71,45,30.09,29.53,13,6,31,0.00
2014-1-3,22.7,9.3,4.2,22.0,2.6,-2.4,97,75,53,30.47,29.54,36,16,47,0.00
2014-1-4,34.8,17.4,5.5,32.2,8.0,-1.9,90,67,44,30.51,30.33,15,10,31,0.00
2014-1-5,41.6,39.0,34.6,41.4,38.6,32.0,100,98,90,30.33,29.63,20,11,31,0.62
2014-1-6,42.8,22.2,-6.2,42.8,16.6,-15.9,100,79,54,29.89,29.44,32,19,46,0.03
2014-1-7,6.9,-1.5,-9.9,-8.9,-13.0,-17.4,72,58,44,30.50,29.88,22,10,35,0.00
2014-1-8,28.6,16.4,3.1,12.2,0.1,-11.3,54,48,40,30.63,30.49,13,7,31,0.00
2014-1-9,30.0,26.8,22.7,18.8,15.3,11.9,83,62,50,30.60,30.49,15,8,31,0.00
2014-1-10,45.0,37.1,23.1,45.0,35.1,16.7,100,93,60,30.50,30.09,15,9,31,0.39
2014-1-11,49.4,45.9,37.7,49.4,45.3,31.8,100,98,79,30.08,29.42,24,14,41,0.67
2014-1-12,39.3,35.3,30.5,32.0,26.4,23.0,82,70,53,30.09,29.44,28,15,36,0.00
2014-1-13,53.2,43.3,38.0,34.9,26.1,16.6,87,53,29,30.09,29.82,18,8,31,0.00
2014-1-14,40.1,37.5,34.9,39.6,35.4,28.2,100,93,73,29.89,29.63,19,8,31,0.14
2014-1-15,43.4,34.2,22.9,32.5,27.5,22.2,98,78,60,29.92,29.81,16,7,31,0.00
2014-1-16,24.7,21.3,15.4,23.0,19.0,13.2,97,91,63,29.97,29.84,13,5,31,0.00
2014-1-17,37.2,30.1,24.7,26.2,21.4,13.8,97,70,53,29.97,29.78,14,7,31,0.00
2014-1-18,25.9,15.9,10.0,25.0,10.5,3.8,97,80,64,29.96,29.73,23,13,33,0.00
2014-1-19,32.0,26.7,17.7,23.5,18.9,10.4,89,72,58,29.94,29.76,19,12,31,0.00
2014-1-20,44.7,36.5,30.9,25.1,20.2,11.0,68,52,37,29.83,29.68,16,10,31,0.00
2014-1-21,34.3,19.8,7.3,24.5,17.5,5.2,97,91,66,29.80,29.59,23,12,34,0.00
2014-1-22,7.2,2.2,-4.9,5.0,-3.1,-7.8,91,79,55,30.12,29.73,27,13,33,0.00
2014-1-23,12.1,5.3,-1.8,5.5,-4.1,-10.0,83,65,50,30.42,30.11,25,10,34,0.00
2014-1-24,14.8,3.2,-5.4,-6.4,-9.3,-11.6,75,57,33,30.54,30.13,24,12,33,0.00
2014-1-25,21.5,18.2,12.8,16.7,3.2,-11.1,93,56,27,30.13,29.50,22,12,31,0.00
2014-1-26,37.4,18.6,7.7,23.4,1.2,-8.6,75,48,31,29.88,29.63,25,10,35,0.00
2014-1-27,41.2,30.6,6.8,31.6,18.0,-10.0,74,59,36,30.00,29.68,21,14,40,0.00
2014-1-28,8.7,3.2,-1.4,1.0,-6.3,-14.9,89,65,45,30.32,30.00,22,8,31,0.00
2014-1-29,12.8,5.9,-2.7,0.0,-5.1,-10.8,88,63,41,30.40,30.20,15,9,31,0.00
2014-1-30,24.7,13.6,7.0,2.2,-2.4,-8.8,56,48,26,30.45,30.21,17,11,31,0.00
2014-1-31,41.5,33.2,25.0,17.6,4.8,-6.8,52,30,24,30.22,30.14,16,7,31,0.00
2014-2-1,47.4,37.5,32.9,38.7,19.4,12.8,72,48,35,30.22,30.00,18,10,31,0.00
2014-2-2,53.7,48.3,42.7,44.3,39.0,28.9,90,71,48,30.00,29.91,15,8,31,0.00
2014-2-3,41.9,31.2,26.3,39.6,30.9,26.1,100,99,90,30.27,29.84,14,8,31,1.36
2014-2-4,28.6,23.7,20.4,28.4,23.2,19.7,99,98,97,30.42,30.11,0,0,31,0.00
2014-2-5,42.4,32.0,20.9,40.8,29.8,16.6,100,92,72,30.13,29.68,25,10,36,0.01
2014-2-6,26.4,20.1,15.3,18.3,15.5,12.0,89,82,71,30.32,30.01,25,11,31,0.00
2014-2-7,32.0,23.7,16.9,21.0,17.5,14.6,92,78,53,30.34,30.25,12,4,31,0.00
2014-2-8,25.3,21.9,19.3,23.8,19.0,15.2,95,88,78,30.31,30.15,10,4,31,0.00
2014-2-9,31.9,27.0,20.9,30.0,24.5,19.6,96,90,79,30.16,29.95,14,7,31,0.00
2014-2-10,25.2,19.6,13.1,20.2,14.4,8.4,91,80,68,30.28,30.00,10,5,31,0.00
2014-2-11,22.1,13.9,8.3,10.2,7.1,3.2,88,75,48,30.46,30.26,6,3,31,0.00
2014-2-12,22.7,11.2,6.2,21.7,7.4,2.5,96,85,74,30.47,30.12,14,8,31,0.00
2014-2-13,26.9,22.9,18.3,26.4,22.2,16.9,98,97,94,30.12,29.35,22,14,31,0.00
2014-2-14,42.4,32.7,22.0,23.4,18.1,12.1,98,59,30,29.74,29.42,26,16,46,0.00
2014-2-15,37.7,25.5,15.2,31.1,22.1,9.2,99,88,44,29.92,29.49,31,14,45,0.00
2014-2-16,30.2,21.5,14.7,21.9,13.0,5.5,85,70,42,30.19,29.91,25,13,37,0.00
2014-2-17,24.2,18.3,13.0,16.2,11.6,9.0,93,75,61,30.40,30.17,25,12,32,0.00
2014-2-18,46.4,34.4,17.9,26.1,18.2,12.1,98,58,27,30.18,30.05,21,12,37,0.00
2014-2-19,52.2,44.5,39.2,44.0,30.7,16.9,93,60,37,30.08,29.70,22,13,35,0.07
2014-2-20,50.9,38.1,32.6,46.7,26.0,17.3,86,62,43,30.17,29.93,21,13,31,0.00
2014-2-21,51.4,45.4,36.5,51.4,35.6,15.6,100,74,32,29.93,29.63,26,14,37,0.35
2014-2-22,50.0,41.3,33.5,19.8,16.1,12.5,48,36,24,30.09,29.91,16,9,31,0.00
2014-2-23,54.6,46.3,35.5,30.6,22.3,18.0,82,41,28,30.03,29.80,17,9,31,0.00
2014-2-24,35.9,28.9,21.5,30.6,11.0,-1.4,83,50,22,30.08,29.80,20,14,34,0.00
2014-2-25,29.9,23.0,19.6,18.2,11.3,4.7,85,61,48,30.07,29.96,10,5,31,0.00
2014-2-26,24.7,20.2,13.9,18.2,9.2,-1.6,94,64,37,29.99,29.82,15,6,31,0.00
2014-2-27,29.2,18.6,12.0,5.0,1.4,-4.7,68,48,29,30.06,29.67,18,10,31,0.00
2014-2-28,17.7,10.9,1.9,5.1,2.0,-2.1,85,68,56,30.39,30.05,13,7,31,0.00
2014-3-1,40.9,30.1,10.7,28.0,14.4,1.1,66,53,35,30.39,30.21,13,6,31,0.00
2014-3-2,54.8,44.3,30.7,45.2,37.1,25.5,100,77,56,30.20,29.85,15,8,31,0.54
2014-3-3,31.8,10.8,4.7,31.8,9.3,2.8,100,93,91,30.31,29.82,6,0,31,0.02
2014-3-4,26.5,17.0,5.9,19.3,5.0,-12.8,92,62,20,30.43,30.25,5,1,31,0.00
2014-3-5,38.4,30.3,21.9,21.2,12.7,-20.9,69,50,11,30.31,30.16,13,4,31,0.01
2014-3-6,22.7,18.5,15.0,16.3,12.5,8.1,94,78,62,30.45,30.30,14,8,31,0.00
2014-3-7,34.2,27.3,17.7,33.6,25.9,12.5,99,95,75,30.33,29.96,20,4,31,0.02
2014-3-8,52.4,43.6,33.9,36.6,30.9,25.6,97,62,45,30.00,29.90,19,10,31,0.00
2014-3-9,44.6,39.8,34.8,32.2,27.1,19.9,87,61,42,30.00,29.85,21,8,31,0.00
2014-3-10,59.1,45.5,35.7,28.9,25.0,21.8,66,47,28,29.96,29.69,18,10,31,0.00
2014-3-11,61.3,52.8,47.8,38.5,33.9,28.6,60,49,40,29.70,29.61,20,10,31,0.00
2014-3-12,57.0,48.1,20.8,51.6,36.0,15.0,100,67,41,29.62,28.95,40,13,53,0.23
2014-3-13,21.9,16.2,8.5,15.3,-0.7,-9.0,83,48,33,30.20,29.32,30,19,45,0.00
2014-3-14,48.5,35.8,18.3,21.3,12.2,0.8,47,38,28,30.27,29.95,16,10,31,0.00
2014-3-15,52.8,46.1,41.7,31.8,25.0,18.5,61,44,29,30.00,29.80,17,11,33,0.00
2014-3-16,42.4,32.1,20.2,26.9,23.5,19.0,96,73,45,30.04,29.91,12,4,31,0.00
2014-3-17,21.9,19.2,16.4,20.9,18.0,15.0,96,95,94,30.08,29.86,10,5,31,0.00
2014-3-18,32.5,25.0,20.2,32.3,24.3,19.2,100,97,95,30.23,30.05,0,0,31,0.07
2014-3-19,44.9,33.1,22.8,42.4,32.4,21.3,100,97,80,30.21,29.87,15,6,31,0.08
2014-3-20,45.0,39.4,34.3,38.2,26.1,15.5,95,61,31,29.96,29.82,19,12,32,0.00
2014-3-21,55.9,42.2,34.2,32.4,27.1,20.6,72,56,33,30.04,29.96,13,7,31,0.00
2014-3-22,59.1,50.4,39.1,34.5,23.8,12.9,73,37,19,29.98,29.82,17,10,31,0.00
2014-3-23,46.1,32.5,21.3,28.3,24.7,14.7,91,75,35,30.08,29.89,20,9,31,0.00
2014-3-24,33.9,21.4,11.0,15.6,7.8,3.5,79,58,32,30.24,30.07,18,8,31,0.00
2014-3-25,24.5,21.5,18.9,22.7,16.2,6.2,96,82,50,30.14,29.81,15,6,31,0.00
2014-3-26,23.5,17.8,12.2,18.4,8.3,4.1,95,68,46,30.33,29.89,22,13,34,0.00
2014-3-27,38.3,28.3,18.3,20.3,12.4,-2.1,60,51,28,30.43,30.23,18,11,31,0.00
2014-3-28,51.4,43.7,37.1,48.2,39.1,20.3,99,85,48,30.24,30.05,14,8,31,0.06
2014-3-29,52.6,49.4,44.7,51.2,48.3,44.7,100,96,84,30.10,29.49,15,6,31,0.71
2014-3-30,45.2,32.1,26.6,45.2,31.1,22.3,100,97,62,29.83,29.40,34,26,43,0.22
2014-3-31,54.1,41.9,30.4,25.6,22.9,19.8,71,49,30,30.13,29.82,33,21,43,0.00
2014-4-1,61.6,50.9,38.9,36.5,29.2,23.4,56,44,31,30.13,29.95,13,7,31,0.00
2014-4-2,63.5,58.2,49.3,39.6,33.9,27.2,69,41,29,30.03,29.95,14,8,31,0.00
2014-4-3,54.2,50.3,46.5,46.2,42.9,38.8,82,76,64,30.05,29.87,17,10,31,0.08
2014-4-4,59.9,51.7,46.3,50.9,47.5,42.3,97,86,65,29.87,29.64,22,8,33,0.03
2014-4-5,52.4,42.4,33.5,46.4,30.2,23.6,81,63,43,30.07,29.65,18,11,31,0.00
2014-4-6,46.3,38.0,29.8,27.4,22.2,17.8,78,55,37,30.22,30.06,18,9,31,0.00
2014-4-7,47.0,38.3,31.8,47.0,35.9,22.1,100,92,50,30.13,29.58,25,14,31,0.56
2014-4-8,50.5,46.7,41.4,49.4,40.6,33.9,100,80,59,29.66,29.46,26,13,37,0.00
2014-4-9,51.7,44.0,38.5,34.5,31.2,27.0,76,61,40,30.04,29.64,17,12,31,0.00
2014-4-10,59.8,50.0,40.6,33.7,29.6,25.8,58,46,34,30.20,30.03,14,7,31,0.00
2014-4-11,70.9,59.2,53.4,48.3,37.3,32.2,82,46,28,30.05,29.90,19,10,31,0.07
2014-4-12,64.4,56.9,51.4,50.1,47.2,42.1,87,71,50,30.18,29.99,17,9,31,0.00
2014-4-13,71.9,61.8,51.2,53.6,49.9,45.7,92,66,45,30.09,29.95,15,9,31,0.00
2014-4-14,61.4,56.7,51.3,53.6,51.9,49.8,99,84,74,29.95,29.72,16,11,31,0.00
2014-4-15,56.4,44.5,22.3,56.4,44.2,19.6,100,99,89,29.84,29.49,34,16,44,1.21
2014-4-16,38.1,26.2,17.6,30.3,16.6,13.1,90,69,45,30.54,29.82,30,13,38,0.00
2014-4-17,43.2,33.7,25.9,30.4,23.6,13.9,87,67,49,30.62,30.50,15,11,31,0.00
2014-4-18,47.4,37.7,27.8,37.9,33.2,27.3,99,85,54,30.52,30.27,13,6,31,0.00
2014-4-19,54.5,49.8,45.7,41.3,35.6,24.2,71,58,40,30.27,30.19,14,6,31,0.00
2014-4-20,52.9,45.9,39.3,34.1,29.3,24.2,74,53,42,30.34,30.22,13,9,31,0.00
2014-4-21,59.8,50.1,37.5,34.5,29.1,18.9,77,47,29,30.23,29.88,11,6,31,0.00
2014-4-22,62.7,58.5,53.3,50.5,41.9,27.9,75,55,35,29.89,29.55,18,8,31,0.00
2014-4-23,53.0,43.1,37.9,43.3,31.2,26.3,89,64,46,29.94,29.57,25,17,36,0.00
2014-4-24,57.0,42.1,32.2,27.5,20.5,12.0,73,46,21,30.11,29.93,19,10,31,0.00
2014-4-25,54.7,48.3,43.0,54.4,37.8,20.3,100,71,37,30.02,29.66,27,11,40,0.58
2014-4-26,64.3,53.0,41.4,45.4,38.8,34.1,80,61,40,29.87,29.69,31,15,39,0.00
2014-4-27,62.2,51.3,42.3,43.7,39.3,32.1,84,65,43,30.04,29.85,14,8,31,0.00
2014-4-28,47.4,42.8,40.3,42.0,37.9,31.9,100,84,55,30.04,29.91,17,12,31,0.29
2014-4-29,45.2,40.8,38.3,45.1,40.8,38.3,100,100,100,30.13,29.97,23,17,31,0.79
2014-4-30,59.3,52.6,44.8,59.3,52.6,44.8,100,100,100,30.12,29.82,16,10,31,0.78
2014-5-1,66.0,56.8,48.0,57.6,46.9,26.3,100,73,26,29.82,29.69,23,8,31,0.06
2014-5-2,59.4,50.2,42.6,37.7,34.4,31.8,68,55,39,29.85,29.69,26,9,38,0.00
2014-5-3,61.1,53.0,45.3,39.0,35.6,32.6,63,52,39,29.85,29.74,13,6,31,0.00
2014-5-4,65.4,56.2,48.8,42.2,36.4,30.0,66,48,36,29.85,29.70,25,14,44,0.00
2014-5-5,52.2,44.9,38.6,41.1,32.1,24.4,83,62,37,29.96,29.85,13,8,31,0.08
2014-5-6,65.6,53.6,43.9,51.1,43.8,20.8,90,70,34,30.02,29.87,10,6,31,0.00
2014-5-7,62.2,55.7,50.9,52.4,49.3,46.4,100,80,58,30.13,30.01,16,12,31,0.00
2014-5-8,79.9,67.8,53.3,58.0,52.5,45.5,100,63,32,30.12,29.99,11,6,31,0.00
2014-5-9,78.6,70.0,62.5,62.2,52.4,44.9,86,55,40,30.01,29.86,13,6,31,0.03
2014-5-10,66.2,60.8,55.0,58.8,54.9,52.3,96,81,71,29.96,29.83,18,11,31,0.20
2014-5-11,71.1,60.9,53.3,55.8,52.0,47.0,90,74,44,30.11,29.93,15,8,31,0.00
2014-5-12,76.5,67.9,61.7,63.0,57.0,52.5,87,69,51,30.11,30.02,13,7,31,0.13
2014-5-13,76.2,70.3,63.9,66.8,61.4,56.6,85,73,67,30.08,29.99,14,6,31,0.00
2014-5-14,66.0,61.0,56.7,62.9,59.2,56.7,100,94,75,30.07,30.01,17,9,31,0.00
2014-5-15,61.1,58.5,56.9,61.1,58.5,56.9,100,100,100,30.05,29.74,29,16,39,2.31
2014-5-16,60.2,50.6,43.5,60.2,46.2,38.3,100,86,57,29.92,29.70,29,10,39,1.20
2014-5-17,55.3,46.7,38.8,40.7,34.0,28.9,88,63,39,30.15,29.91,18,10,31,0.00
2014-5-18,54.5,46.4,39.6,36.4,33.4,30.2,79,61,43,30.24,30.15,15,8,31,0.00
2014-5-19,60.3,51.2,43.7,39.4,33.1,28.8,63,50,33,30.30,30.18,7,4,31,0.00
2014-5-20,66.0,57.1,50.6,52.1,45.1,36.6,78,65,44,30.19,29.99,10,6,31,0.00
2014-5-21,73.1,66.0,60.1,59.9,55.8,52.2,79,70,56,29.99,29.83,14,7,31,0.00
2014-5-22,75.1,66.6,60.5,62.5,55.7,49.1,88,69,50,29.85,29.74,22,11,33,0.00
2014-5-23,67.7,58.0,50.2,50.7,45.1,41.6,78,64,40,29.97,29.82,17,11,31,0.00
2014-5-24,63.2,53.5,44.6,49.7,44.9,40.8,89,73,56,30.14,29.96,17,9,31,0.00
2014-5-25,70.3,60.7,53.1,52.6,47.6,43.9,78,63,43,30.16,30.07,8,5,31,0.00
2014-5-26,76.3,66.7,58.8,58.7,53.5,46.5,83,64,37,30.10,29.95,10,6,31,0.00
2014-5-27,76.0,67.9,62.4,66.3,59.9,53.8,93,76,61,29.97,29.81,17,8,31,0.03
2014-5-28,76.8,67.2,62.9,63.5,59.6,55.6,88,77,59,29.95,29.81,17,10,31,0.02
2014-5-29,63.5,53.9,51.2,58.9,53.4,51.2,100,98,77,30.08,29.93,11,7,31,0.25
2014-5-30,58.8,56.1,52.7,58.8,54.9,46.0,100,96,63,30.12,30.04,9,5,31,0.02
2014-5-31,65.6,58.9,53.1,53.3,48.9,44.6,89,70,50,30.20,30.09,11,6,31,0.00
2014-6-1,62.3,54.8,47.3,53.5,49.3,44.4,95,82,70,30.29,30.20,12,9,31,0.00
2014-6-2,70.6,61.0,50.5,60.9,54.4,48.8,96,79,60,30.24,30.04,10,6,31,0.00
2014-6-3,72.7,66.2,62.6,63.9,60.1,55.6,99,81,69,30.04,29.84,12,7,31,0.01
2014-6-4,75.5,66.3,60.4,64.1,59.7,56.1,99,81,51,29.85,29.61,13,6,31,0.54
2014-6-5,66.7,60.8,52.9,61.9,56.1,48.2,100,86,60,29.83,29.53,17,10,31,0.00
2014-6-6,68.8,59.1,51.3,52.5,49.7,44.9,90,72,53,29.98,29.82,9,6,31,0.00
2014-6-7,72.0,62.5,56.4,58.5,53.7,49.0,85,73,58,30.01,29.91,9,3,31,0.00
2014-6-8,68.1,63.2,58.2,64.9,60.2,55.0,99,90,81,29.94,29.77,13,8,31,0.03
2014-6-9,72.7,65.9,59.8,64.9,62.3,59.3,100,89,68,29.85,29.80,7,4,31,0.00
2014-6-10,75.8,67.1,62.1,68.0,63.8,59.7,100,90,65,29.90,29.80,11,3,31,0.55
2014-6-11,72.9,65.2,57.8,68.2,62.9,57.8,100,93,71,29.92,29.81,31,9,39,0.78
2014-6-12,67.7,61.8,58.0,67.2,61.8,57.1,100,100,94,29.88,29.78,13,7,31,2.38
2014-6-13,75.1,66.3,58.1,67.3,61.9,55.3,99,86,70,29.81,29.71,13,5,31,0.13
2014-6-14,67.5,60.0,53.0,55.8,51.3,46.8,98,74,49,30.07,29.80,14,8,31,0.00
2014-6-15,69.8,61.4,51.8,63.0,55.7,46.2,91,82,71,30.15,30.07,6,3,31,0.00
2014-6-16,80.8,70.7,62.9,67.1,63.5,60.1,93,79,53,30.12,30.01,9,5,31,0.00
2014-6-17,80.1,73.4,67.9,70.5,65.4,60.6,88,76,64,30.07,29.93,8,4,31,0.00
2014-6-18,83.0,74.8,69.1,69.6,64.1,55.5,82,70,54,29.99,29.91,17,9,31,0.00
2014-6-19,79.4,70.0,62.2,68.4,64.1,60.2,100,82,66,29.95,29.84,18,8,31,0.10
2014-6-20,68.8,63.3,59.9,66.0,62.6,59.8,100,98,90,29.98,29.88,11,5,31,0.40
2014-6-21,68.7,63.1,60.1,67.3,63.0,60.1,100,100,94,29.88,29.78,8,3,31,0.20
2014-6-22,63.4,59.6,56.1,63.0,59.4,56.1,100,99,91,29.98,29.81,9,4,31,0.03
2014-6-23,66.6,61.4,57.5,62.9,60.1,57.5,100,96,85,30.09,29.97,11,8,31,0.00
2014-6-24,69.9,64.4,57.0,67.8,63.1,57.0,100,96,86,30.09,29.96,13,8,31,0.00
2014-6-25,75.3,68.4,63.5,70.6,65.8,62.4,100,92,79,29.97,29.78,12,5,31,0.00
2014-6-26,75.1,66.5,61.9,66.6,63.1,60.1,99,89,73,29.97,29.81,17,6,31,0.00
2014-6-27,74.6,67.1,61.9,65.8,62.1,57.3,100,85,60,30.09,29.97,12,5,31,0.06
2014-6-28,67.7,63.1,58.4,66.1,62.1,57.5,100,97,83,30.20,30.09,17,8,31,1.71
2014-6-29,69.1,62.9,57.3,59.7,56.4,48.7,99,80,58,30.20,30.08,11,7,31,0.00
2014-6-30,72.3,67.3,61.5,68.7,63.8,51.6,97,89,66,30.08,29.90,9,5,31,0.00
2014-7-1,80.5,71.1,64.4,72.9,68.3,64.3,100,91,75,29.93,29.80,8,6,31,0.00
2014-7-2,82.4,74.2,63.5,73.3,68.7,62.5,100,83,69,29.88,29.78,20,5,34,0.45
2014-7-3,76.4,70.6,63.9,71.6,66.0,61.0,99,86,68,29.89,29.83,10,3,31,1.54
2014-7-4,65.0,60.9,55.4,55.4,49.9,46.5,88,68,58,30.16,29.93,21,13,31,0.00
2014-7-5,67.5,58.5,49.9,54.4,48.8,44.3,82,70,56,30.27,30.15,12,6,31,0.00
2014-7-6,75.1,66.4,58.7,61.9,54.8,45.4,77,66,54,30.17,29.93,8,5,31,0.00
2014-7-7,77.3,70.8,65.2,67.2,60.9,55.2,78,71,63,29.93,29.80,14,7,31,0.00
2014-7-8,79.0,71.9,63.0,70.2,62.8,58.5,97,73,66,29.84,29.71,18,7,31,0.35
2014-7-9,73.1,67.0,63.5,69.1,64.2,60.8,98,91,83,29.93,29.75,15,5,31,0.23
2014-7-10,70.7,65.7,61.4,65.9,61.5,58.4,99,86,77,30.07,29.92,10,5,31,0.13
2014-7-11,69.8,64.9,60.1,65.9,62.5,58.9,100,92,83,30.17,30.06,7,4,31,0.01
2014-7-12,74.4,68.5,63.5,69.1,64.8,60.8,96,88,79,30.17,30.05,10,6,31,0.00
2014-7-13,79.7,71.3,64.5,71.1,66.2,61.2,96,84,69,30.06,29.88,10,5,31,0.05
2014-7-14,79.6,72.4,67.9,71.6,66.6,63.3,91,82,69,29.89,29.73,13,4,31,0.25
2014-7-15,73.6,68.1,62.4,67.4,63.7,56.4,98,86,77,29.77,29.65,11,4,31,0.00
2014-7-16,67.9,60.5,55.6,57.9,53.7,48.8,91,79,64,29.92,29.71,12,8,31,0.00
2014-7-17,68.2,60.1,53.7,56.2,52.5,48.6,86,76,57,30.11,29.91,8,4,31,0.00
2014-7-18,67.3,61.6,57.1,60.2,56.4,52.4,92,83,74,30.18,30.10,11,6,31,0.00
2014-7-19,64.5,59.0,53.2,59.3,55.5,51.6,96,88,69,30.16,30.08,13,7,31,0.27
2014-7-20,65.6,59.9,52.1,62.3,58.5,51.1,99,95,89,30.11,30.04,8,4,31,0.04
2014-7-21,69.0,63.6,60.3,67.4,63.4,60.0,100,99,92,30.14,30.07,13,6,31,0.72
2014-7-22,71.9,66.7,63.3,71.0,66.3,63.3,100,99,91,30.13,30.03,12,6,31,0.10
2014-7-23,79.9,70.6,63.5,73.1,67.1,61.9,100,89,72,30.03,29.77,17,5,31,0.14
2014-7-24,68.0,62.1,57.9,65.1,61.2,55.4,100,97,85,29.92,29.77,13,6,31,0.30
2014-7-25,69.8,61.7,56.1,63.1,58.6,53.6,100,90,77,30.04,29.92,10,4,31,0.00
2014-7-26,74.8,67.0,60.8,67.2,63.1,59.6,100,88,70,29.98,29.86,8,4,31,0.03
2014-7-27,72.5,66.8,59.9,68.8,63.7,59.1,100,90,76,29.86,29.62,19,7,31,0.40
2014-7-28,67.8,63.2,54.0,64.8,57.0,52.3,95,81,66,29.79,29.52,21,11,31,0.00
2014-7-29,63.3,54.7,49.2,55.6,50.1,46.4,95,85,71,30.01,29.75,18,7,31,0.00
2014-7-30,66.6,57.9,50.9,56.5,51.3,46.3,87,79,64,30.06,30.00,8,4,31,0.00
2014-7-31,73.4,64.4,58.4,61.4,57.0,51.9,96,78,51,30.08,30.03,9,5,31,0.00
2014-8-1,63.4,60.0,53.0,60.6,58.7,53.0,100,96,84,30.13,30.06,11,6,31,0.05
2014-8-2,62.9,58.0,53.0,62.8,58.0,53.0,100,100,99,30.12,30.04,11,5,31,0.01
2014-8-3,71.8,63.2,58.1,64.8,61.4,58.1,100,94,76,30.07,29.99,8,4,31,0.07
2014-8-4,69.9,63.8,58.5,63.7,59.6,56.7,96,86,68,30.08,30.02,7,4,31,0.00
2014-8-5,73.7,66.4,61.8,65.4,60.9,57.3,93,83,64,30.05,29.93,7,3,31,0.00
2014-8-6,69.3,64.6,61.4,64.1,60.3,56.3,97,86,76,29.93,29.85,9,5,31,0.00
2014-8-7,69.2,63.3,59.3,61.4,57.6,52.8,94,82,67,30.03,29.90,8,5,31,0.00
2014-8-8,67.4,62.5,59.5,61.0,57.1,50.8,99,83,71,30.08,30.01,9,4,31,0.00
2014-8-9,64.7,60.9,57.4,62.4,60.0,56.4,100,97,91,30.08,30.02,10,6,31,0.00
2014-8-10,66.7,60.9,55.6,63.0,59.3,54.2,100,94,85,30.10,30.05,13,8,31,0.00
2014-8-11,61.5,58.9,57.0,61.4,57.8,53.5,100,96,82,30.07,29.95,15,11,31,0.17
2014-8-12,67.6,62.8,56.7,67.6,62.8,56.7,100,100,100,29.95,29.74,19,9,31,0.80
2014-8-13,67.0,60.0,55.0,60.0,56.5,50.0,100,89,74,29.90,29.69,17,10,31,0.00
2014-8-14,68.6,60.1,52.8,58.6,52.0,48.6,89,75,55,29.93,29.86,15,7,31,0.00
2014-8-15,68.3,59.6,50.9,59.0,53.1,46.1,92,79,64,29.98,29.90,11,5,31,0.00
2014-8-16,72.4,62.8,54.7,59.5,51.9,45.8,83,68,50,29.99,29.92,8,3,31,0.00
2014-8-17,72.8,66.0,62.4,65.9,60.1,51.6,94,82,63,29.93,29.87,15,7,31,0.00
2014-8-18,65.0,63.1,61.1,63.2,61.6,59.7,100,95,85,29.90,29.75,9,5,31,0.00
2014-8-19,69.5,63.6,60.8,68.0,63.4,60.8,100,99,93,29.88,29.75,8,4,31,0.14
2014-8-20,73.1,65.3,61.8,71.2,64.8,61.5,100,99,90,29.98,29.86,12,5,31,0.97
2014-8-21,75.1,68.3,63.7,69.2,64.8,62.3,98,89,71,30.02,29.94,11,4,31,0.01
2014-8-22,71.7,65.3,61.8,69.0,64.0,61.1,100,95,88,29.96,29.89,11,4,31,0.06
2014-8-23,65.1,63.5,61.3,65.1,63.5,61.3,100,100,100,29.95,29.90,9,6,31,0.56
2014-8-24,60.6,58.9,56.4,60.2,58.7,55.8,100,100,98,30.11,30.08,8,6,31,0.05
2014-8-25,65.4,61.0,55.7,58.6,56.1,53.5,97,84,74,30.16,30.10,10,6,31,0.00
2014-8-26,69.4,62.3,55.8,60.1,56.3,51.1,95,81,60,30.16,30.08,10,5,31,0.00
2014-8-27,75.9,67.6,59.6,67.9,60.9,53.1,89,79,68,30.08,29.90,8,4,31,0.00
2014-8-28,74.7,67.6,59.8,66.0,61.4,50.3,98,81,61,30.01,29.85,13,7,31,0.00
2014-8-29,66.2,60.1,54.5,59.3,54.6,50.0,94,82,72,30.16,30.01,10,6,31,0.00
2014-8-30,72.3,64.6,57.5,68.2,63.7,56.8,99,97,85,30.18,30.08,12,6,31,0.00
2014-8-31,76.7,70.2,65.0,71.9,67.0,63.2,98,90,77,30.10,29.95,10,5,31,0.01
2014-9-1,80.6,72.1,67.5,69.5,65.7,60.8,88,80,67,29.98,29.90,13,6,31,0.00
2014-9-2,81.2,72.9,68.6,69.7,65.2,61.0,87,77,63,29.94,29.82,11,7,31,0.37
2014-9-3,71.6,67.1,63.5,68.8,64.1,60.4,95,90,80,30.08,29.82,13,6,31,0.00
2014-9-4,72.6,66.3,63.3,69.6,62.8,57.3,95,89,73,30.12,30.04,12,6,31,0.00
2014-9-5,76.2,70.3,65.2,71.1,66.0,55.2,91,86,70,30.12,29.98,11,5,31,0.03
2014-9-6,78.7,69.8,64.8,70.0,65.3,61.3,92,86,70,29.99,29.83,14,7,31,0.00
2014-9-7,64.9,58.7,52.0,61.6,52.5,45.4,92,80,64,30.14,29.88,13,7,31,0.01
2014-9-8,57.2,55.3,51.6,53.8,46.1,33.3,91,72,49,30.19,30.12,16,9,31,0.14
2014-9-9,60.6,56.9,53.6,45.7,20.6,2.2,74,28,10,30.18,30.11,9,4,31,0.02
2014-9-10,63.5,60.4,57.7,2.3,-19.5,-41.1,10,5,1,30.12,29.99,9,5,31,0.03
2014-9-11,76.3,66.5,59.9,68.4,29.5,-41.4,84,50,1,30.00,29.86,12,6,31,0.01
2014-9-12,65.6,56.9,51.4,59.5,-10.8,-46.6,82,16,1,30.12,29.93,11,6,31,0.00
2014-9-13,58.7,53.4,49.2,43.0,-19.0,-48.0,74,15,1,30.21,30.07,14,9,31,0.09
2014-9-14,56.2,49.7,42.7,50.8,28.5,-32.5,84,55,3,30.28,30.20,10,4,31,0.01
2014-9-15,61.4,54.6,48.2,55.5,17.0,-48.6,82,44,1,30.23,30.03,9,6,31,0.01
2014-9-16,61.8,57.4,52.1,55.6,34.7,-44.6,81,63,1,30.04,29.94,10,6,31,0.00
2014-9-17,62.1,54.6,49.8,53.0,48.0,42.4,82,79,72,30.02,29.93,8,4,31,0.00
2014-9-18,65.2,57.1,52.6,57.2,46.8,30.9,82,69,44,30.08,29.93,6,3,31,0.00
2014-9-19,56.6,53.3,50.0,49.5,1.1,-47.5,83,27,1,30.27,30.07,12,8,31,0.00
2014-9-20,65.5,56.7,51.0,57.7,0.9,-46.8,83,35,1,30.27,30.02,14,9,31,0.00
2014-9-21,74.7,63.5,56.9,63.7,54.2,-1.5,82,74,9,30.06,29.64,15,7,31,0.00
2014-9-22,58.8,52.9,45.7,48.1,45.1,40.8,83,75,60,30.16,29.71,17,10,31,0.00
2014-9-23,57.2,48.1,41.8,48.7,41.7,33.5,84,79,71,30.38,30.16,12,5,31,0.00
2014-9-24,52.9,50.7,48.1,46.9,18.1,-47.3,83,49,1,30.43,30.35,12,9,31,0.08
2014-9-25,54.9,52.0,49.5,-44.4,-46.2,-47.8,1,1,1,30.36,30.24,12,8,31,0.05
2014-9-26,65.1,57.0,53.7,58.6,-3.2,-45.2,85,34,1,30.27,30.17,7,3,31,0.02
2014-9-27,65.1,58.6,52.7,55.6,51.8,47.8,85,79,65,30.22,30.16,10,4,31,0.00
2014-9-28,68.2,60.4,55.5,58.3,54.0,50.1,84,79,69,30.18,30.02,6,3,31,0.00
2014-9-29,63.8,60.0,57.5,58.2,53.3,46.5,84,79,60,30.02,29.89,5,2,31,0.00
2014-9-30,66.0,59.3,53.8,59.9,34.5,-45.1,85,59,1,29.90,29.80,9,5,31,0.04
2014-10-1,57.6,55.0,52.5,-42.8,-44.4,-46.0,1,1,1,30.07,29.90,8,4,31,0.04
2014-10-2,62.0,57.2,54.9,53.1,-28.2,-44.4,73,9,1,30.11,30.04,10,5,31,0.01
2014-10-3,61.0,56.5,52.6,-40.7,-43.4,-45.9,1,1,1,30.08,29.68,16,10,31,0.50
2014-10-4,58.7,48.4,36.5,45.9,11.4,-47.6,85,45,1,29.75,29.56,19,9,31,0.00
2014-10-5,51.4,42.2,34.7,35.3,30.9,26.5,79,65,46,29.97,29.71,15,6,31,0.00
2014-10-6,59.4,51.9,44.7,48.6,40.7,-49.5,82,67,2,29.99,29.89,17,8,31,0.09
2014-10-7,58.9,51.9,46.8,52.3,36.9,-47.0,84,64,1,30.01,29.86,15,8,31,0.47
2014-10-8,63.8,55.1,50.2,51.3,40.7,14.9,84,61,24,29.98,29.86,13,9,31,0.00
2014-10-9,63.0,54.5,47.2,46.1,42.5,39.3,76,64,46,30.10,29.98,15,7,31,0.00
2014-10-10,56.3,52.2,48.4,46.1,7.4,-48.1,82,42,1,30.06,29.99,10,4,31,0.14
2014-10-11,51.6,47.6,44.1,-46.5,-49.0,-51.1,1,1,1,30.16,29.92,12,6,31,0.41
2014-10-12,48.2,43.5,40.5,40.3,-21.4,-51.2,89,17,1,30.28,30.15,14,8,31,0.02
2014-10-13,60.6,54.7,48.4,-40.9,-44.5,-48.5,1,1,1,30.29,30.17,17,9,31,0.03
2014-10-14,63.6,61.6,58.1,-39.1,-40.3,-42.5,1,1,1,30.17,29.85,29,18,37,1.05
2014-10-15,63.5,62.5,57.4,-39.2,-39.8,-42.9,1,1,1,29.85,29.72,29,21,43,1.04
2014-10-16,53.9,52.2,49.9,50.7,43.7,29.4,90,74,45,29.72,29.70,4,2,31,0.01
2014-10-17,60.9,49.5,46.5,50.6,44.9,41.0,89,85,67,29.80,29.69,17,13,31,0.00
2014-10-18,57.2,53.0,50.7,50.1,43.7,40.6,78,71,64,29.67,29.62,14,9,31,0.00
2014-10-21,55.3,43.7,39.2,45.3,-3.3,-54.2,86,29,1,29.88,29.75,18,13,31,0.12
2014-10-22,42.3,39.5,38.1,23.7,-32.6,-54.6,55,11,1,30.02,29.85,27,20,35,0.07
2014-10-23,50.4,42.9,37.3,43.1,36.2,20.8,88,77,51,29.97,29.90,29,22,39,0.00
2014-10-24,55.9,46.7,40.7,42.1,37.3,29.2,87,72,48,30.00,29.92,27,16,37,0.00
2014-10-25,61.3,52.6,43.9,45.9,37.2,29.4,75,56,43,29.98,29.70,18,9,26,0.00
2014-10-26,57.7,51.8,44.7,46.6,25.0,11.0,75,39,16,29.91,29.64,24,14,37,0.00
2014-10-27,63.7,55.3,47.5,49.2,29.6,19.9,60,38,21,30.06,29.91,15,8,22,0.00
2014-10-28,74.7,67.0,62.6,52.1,47.4,41.2,64,50,32,30.02,29.87,13,7,20,0.00
2014-10-29,63.3,52.5,44.1,51.1,22.1,-50.1,87,51,1,29.92,29.81,16,6,19,0.05
2014-10-30,44.1,39.4,36.2,36.0,33.5,30.9,87,79,70,30.04,29.90,14,7,18,0.00
2014-10-31,40.6,37.5,34.8,34.3,32.2,25.9,87,81,72,30.02,29.82,7,4,10,0.00
2014-11-1,34.6,31.4,28.6,25.1,-31.0,-58.9,68,11,1,29.93,29.77,32,18,42,0.05
2014-11-2,34.8,29.8,25.4,25.2,21.2,15.4,88,72,52,30.32,29.89,34,25,45,0.00
2014-11-3,54.4,43.6,30.7,20.2,14.4,4.9,64,34,18,30.40,30.25,25,13,32,0.00
2014-11-4,63.2,57.4,50.6,28.5,14.5,1.6,30,19,10,30.26,30.04,17,7,27,0.00
2014-11-5,59.8,53.6,47.5,41.5,33.8,5.0,79,49,11,30.14,30.02,18,6,27,0.00
2014-11-6,54.2,45.0,37.7,49.5,20.1,-51.7,87,59,1,30.04,29.62,22,11,33,0.38
2014-11-7,41.5,35.0,25.4,34.1,28.4,19.9,87,77,58,30.02,29.65,29,16,33,0.00
2014-11-8,42.7,33.2,25.2,32.3,25.7,19.6,83,74,62,30.03,29.93,11,7,17,0.00
2014-11-9,48.7,42.1,37.2,34.6,32.9,30.6,81,70,54,30.00,29.90,13,6,19,0.00
2014-11-10,52.1,46.4,39.8,40.3,35.6,25.0,86,67,38,30.10,30.00,21,11,27,0.00
2014-11-11,60.8,52.0,40.7,48.7,37.2,19.5,86,61,26,30.04,29.87,15,10,19,0.00
2014-11-12,56.9,48.0,32.7,46.7,37.2,26.8,83,67,40,30.01,29.81,21,10,27,0.00
2014-11-13,34.1,29.8,22.3,29.8,21.8,2.7,87,74,36,30.06,29.98,16,7,22,0.00
2014-11-14,24.5,19.9,16.6,19.3,12.8,10.4,88,74,60,30.31,30.01,19,13,26,0.00
2014-11-15,31.2,22.3,16.0,15.6,12.3,10.7,83,66,51,30.46,30.31,15,8,19,0.00
2014-11-16,34.0,28.8,25.1,28.6,18.8,12.1,87,67,50,30.36,30.03,13,6,17,0.00
2014-11-17,47.0,36.6,22.3,32.8,-17.5,-56.5,88,34,1,30.03,29.53,27,12,38,0.65
2014-11-18,22.1,13.0,8.9,15.4,3.3,-2.0,79,65,49,30.24,29.69,19,12,27,0.00
2014-11-19,29.3,17.2,8.2,14.2,6.6,1.1,78,63,51,30.35,30.11,17,8,25,0.00
2014-11-20,39.2,32.5,23.4,23.0,16.9,10.0,68,53,35,30.11,29.92,18,13,31,0.00
2014-11-21,25.1,20.3,15.0,10.2,5.8,3.2,72,54,39,30.54,30.04,17,8,27,0.00
2014-11-22,45.7,35.6,19.5,19.3,9.8,-6.9,54,36,15,30.54,30.24,12,7,20,0.00
2014-11-23,51.0,45.1,39.1,41.7,8.7,-54.0,86,41,1,30.25,29.68,28,14,34,0.45
2014-11-24,56.7,52.7,46.2,52.2,-7.6,-49.9,87,33,1,29.78,29.63,23,10,30,0.10
2014-11-25,54.9,43.8,39.3,46.6,31.1,21.1,82,62,42,30.08,29.77,16,7,24,0.00
2014-11-26,40.8,29.5,25.2,35.2,-2.5,-20.7,86,30,10,30.09,29.84,13,6,18,0.29
2014-11-27,29.7,25.7,21.1,18.4,-7.2,-26.4,86,32,8,30.18,29.98,13,5,19,0.00
2014-11-28,23.0,20.3,17.6,17.5,15.3,11.3,88,81,61,30.32,30.15,16,10,25,0.00
2014-11-29,35.9,28.0,21.1,26.8,20.6,13.7,81,74,61,30.31,30.17,16,8,25,0.02
2014-11-30,52.8,47.0,32.5,45.2,39.8,26.4,84,76,69,30.18,30.09,12,8,23,0.02
2014-12-1,58.5,49.8,29.4,50.9,23.5,-59.8,84,61,1,30.31,30.12,17,11,27,0.02
2014-12-2,44.0,28.5,24.2,3.5,-26.9,-60.6,40,13,1,30.45,30.31,11,4,21,0.10
2014-12-3,52.6,45.3,31.6,47.7,15.4,-52.2,85,56,1,30.31,30.02,21,13,30,0.03
2014-12-4,35.1,30.2,26.3,28.1,21.4,-5.7,86,71,24,30.44,30.17,17,4,20,0.00
2014-12-5,42.2,28.9,24.2,-3.4,-26.8,-60.2,29,15,1,30.50,30.35,12,8,16,0.02
2014-12-6,49.4,43.9,31.3,44.6,-29.4,-59.1,84,17,1,30.35,30.00,31,12,47,0.51
2014-12-7,32.2,28.3,21.6,24.9,0.6,-62.5,89,46,1,30.53,30.12,28,16,39,0.00
2014-12-8,30.3,25.5,20.6,17.6,-4.8,-60.1,86,36,1,30.52,30.23,14,8,21,0.00
2014-12-9,30.4,28.1,24.6,-10.8,-44.9,-60.8,20,5,1,30.23,29.90,0,0,7,0.00
2014-12-10,30.0,27.1,21.4,26.6,-3.0,-61.1,88,51,1,29.94,29.77,13,0,16,0.00
2014-12-11,29.1,23.5,18.3,18.3,12.6,5.6,88,66,38,30.04,29.77,18,13,27,0.01
2014-12-12,38.9,31.2,23.8,21.3,16.2,8.8,68,54,40,30.13,30.01,17,12,25,0.00
2014-12-13,42.3,35.7,29.6,25.2,20.7,16.3,71,55,41,30.11,29.95,21,15,26,0.00
2014-12-14,44.9,36.0,28.9,35.1,30.2,21.4,86,79,67,30.02,29.90,27,20,38,0.00
2014-12-15,44.9,37.7,32.1,38.9,25.3,-13.3,87,66,13,30.12,30.01,20,8,27,0.00
2014-12-16,47.2,40.7,35.5,43.1,30.5,-54.5,87,74,1,30.02,29.80,14,8,22,0.13
2014-12-17,40.3,35.5,25.6,34.9,27.6,19.5,87,74,52,29.99,29.85,17,9,21,0.00
2014-12-18,29.8,24.9,20.0,21.1,19.3,16.5,87,79,69,30.11,29.99,18,8,24,0.00
2014-12-19,27.7,22.8,18.3,22.7,18.2,8.9,88,83,66,30.24,30.08,20,12,26,0.00
2014-12-20,28.3,23.6,17.8,24.5,19.8,9.3,88,85,69,30.30,30.22,11,4,17,0.00
2014-12-21,33.4,27.0,22.8,27.8,22.7,14.2,88,84,69,30.33,30.25,11,5,13,0.00
2014-12-22,34.3,26.1,20.6,22.6,-4.9,-59.1,88,41,1,30.28,30.12,13,8,16,0.01
2014-12-23,51.3,45.4,34.4,-46.7,-50.3,-57.2,1,1,1,30.13,29.95,14,7,19,0.39
2014-12-24,53.8,49.8,44.2,-45.1,-47.6,-51.1,1,1,1,29.94,29.52,17,11,24,0.32
2014-12-25,51.6,36.7,31.0,34.0,22.4,-50.2,88,69,1,30.18,29.52,26,14,36,0.00
2014-12-26,47.6,42.7,31.3,28.6,16.4,-1.4,78,36,14,30.31,30.17,12,5,16,0.00
2014-12-27,54.9,48.4,44.3,31.3,18.5,1.1,56,32,14,30.26,30.03,11,6,18,0.00
2014-12-28,54.1,46.9,39.1,43.4,5.0,-54.2,84,38,1,30.03,29.85,17,7,30,0.14
2014-12-29,39.0,29.0,23.4,-11.9,-47.6,-62.1,20,4,1,30.23,30.00,11,3,15,0.15
2014-12-30,26.7,22.6,19.6,19.4,10.2,-11.9,88,60,20,30.43,30.22,11,6,16,0.00
2014-12-31,25.7,20.7,16.4,11.1,7.5,3.4,76,57,41,30.41,30.22,13,8,20,0.00
2015-1-1,34.1,26.4,19.0,22.1,14.6,6.3,69,61,49,30.24,30.09,15,8,27,0.00
2015-1-2,35.8,31.8,27.5,28.0,20.4,14.4,81,63,48,30.40,30.10,13,5,24,0.00